Location: The Saddle
(36.8333°N, 80.3417°W)
Time: 12:54:54
(UTC-04:00)

ZACube-1 - Pass Details

Date: 22 March 2023
Orbit: 564 x 636 km, 97.7° (Epoch: 18 June)

Event Time Altitude Azimuth Distance (km) Brightness Sun altitude
Rises 04:58:00 0° 5° (N) 2,886 ? -28.8°
Reaches altitude 10° 05:00:16 10° 360° (N) 1,961 ? -28.4°
Enters shadow 05:01:24 18° 354° (N) 1,521 ? -28.2°
